• In Germany
  • List of Countries
  • For 7 days
  • Water Temperature
  • Satellite Maps
  • Weather Map
  • Weather Widgets
  • user-avatar
    Login

    Hourly Weather Belmopan

    Today, 23 November, Thursday

    Time Temperature Precipitation Wind Pressure Humidity
    00:00 +22°C° 0.4 mm 1 mps 754 mmHg 99%
    01:00 +22°C° 0 mm 1 mps 754 mmHg 99%
    02:00 +22°C° 0 mm 1 mps 753 mmHg 98%
    03:00 +21°C° 0 mm 2 mps 753 mmHg 98%
    04:00 +21°C° 0 mm 2 mps 753 mmHg 98%
    05:00 +21°C° 0 mm 2 mps 754 mmHg 98%
    06:00 +21°C° 0 mm 2 mps 754 mmHg 98%
    07:00 +23°C° 0 mm 2 mps 754 mmHg 93%
    08:00 +24°C° 0 mm 2 mps 755 mmHg 88%
    09:00 +25°C° 0 mm 2 mps 755 mmHg 83%
    10:00 +25°C° 0 mm 2 mps 755 mmHg 78%
    11:00 +26°C° 0 mm 2 mps 754 mmHg 73%
    12:00 +27°C° 0 mm 2 mps 754 mmHg 68%
    13:00 +28°C° 0 mm 2 mps 753 mmHg 64%
    14:00 +29°C° 0 mm 2 mps 753 mmHg 60%
    15:00 +29°C° 0 mm 2 mps 752 mmHg 56%
    16:00 +28°C° 0 mm 2 mps 752 mmHg 63%
    17:00 +26°C° 0 mm 1 mps 752 mmHg 70%
    18:00 +24°C° 0 mm 1 mps 753 mmHg 78%
    19:00 +24°C° 0 mm 1 mps 753 mmHg 80%
    20:00 +23°C° 0 mm 1 mps 754 mmHg 83%
    21:00 +23°C° 0 mm 2 mps 755 mmHg 85%
    22:00 +21°C° 0 mm 2 mps 755 mmHg 88%
    23:00 +22°C° 0 mm 1 mps 755 mmHg 91%

    Tomorrow, 24 November, Friday

    Time Temperature Precipitation Wind Pressure Humidity
    00:00 +21°C° 0 mm 1 mps 755 mmHg 94%
    01:00 +21°C° 0 mm 1 mps 754 mmHg 94%
    02:00 +21°C° 0 mm 1 mps 754 mmHg 95%
    03:00 +21°C° 0 mm 1 mps 754 mmHg 95%
    04:00 +21°C° 0 mm 1 mps 754 mmHg 96%
    05:00 +20°C° 0 mm 1 mps 754 mmHg 96%
    06:00 +20°C° 0 mm 1 mps 754 mmHg 97%
    07:00 +22°C° 0 mm 1 mps 755 mmHg 89%
    08:00 +23°C° 0 mm 1 mps 756 mmHg 81%
    09:00 +25°C° 0 mm 2 mps 756 mmHg 73%
    10:00 +26°C° 0 mm 2 mps 756 mmHg 67%
    11:00 +27°C° 0 mm 2 mps 755 mmHg 61%
    12:00 +29°C° 0 mm 2 mps 755 mmHg 55%
    13:00 +29°C° 0 mm 1 mps 754 mmHg 54%
    14:00 +29°C° 0 mm 1 mps 754 mmHg 53%
    15:00 +29°C° 0 mm 1 mps 753 mmHg 52%
    16:00 +27°C° 0 mm 1 mps 753 mmHg 60%
    17:00 +23°C° 0 mm 0 mps 753 mmHg 68%
    18:00 +21°C° 0 mm 0 mps 754 mmHg 76%
    19:00 +21°C° 0 mm 0 mps 754 mmHg 78%
    20:00 +21°C° 0 mm 0 mps 755 mmHg 80%
    21:00 +20°C° 0 mm 0 mps 755 mmHg 81%
    22:00 +22°C° 0 mm 1 mps 755 mmHg 82%
    23:00 +22°C° 0 mm 1 mps 755 mmHg 83%

    Day after tomorrow, 25 November, Saturday

    Time Temperature Precipitation Wind Pressure Humidity
    00:00 +22°C° 0 mm 1 mps 755 mmHg 84%
    01:00 +21°C° 0 mm 1 mps 755 mmHg 86%
    02:00 +21°C° 0 mm 1 mps 755 mmHg 88%
    03:00 +20°C° 0 mm 1 mps 754 mmHg 91%
    04:00 +20°C° 0 mm 1 mps 755 mmHg 92%
    05:00 +19°C° 0 mm 1 mps 755 mmHg 94%
    06:00 +19°C° 0 mm 1 mps 755 mmHg 96%
    07:00 +21°C° 0 mm 1 mps 755 mmHg 85%
    08:00 +24°C° 0 mm 1 mps 756 mmHg 74%
    09:00 +26°C° 0 mm 1 mps 756 mmHg 63%
    10:00 +28°C° 0 mm 1 mps 756 mmHg 57%
    11:00 +30°C° 0 mm 1 mps 755 mmHg 52%
    12:00 +31°C° 0 mm 1 mps 755 mmHg 46%
    13:00 +31°C° 0 mm 1 mps 754 mmHg 48%
    14:00 +30°C° 0 mm 1 mps 753 mmHg 49%
    15:00 +30°C° 0 mm 1 mps 753 mmHg 50%
    16:00 +28°C° 0 mm 1 mps 753 mmHg 59%
    17:00 +26°C° 0 mm 1 mps 753 mmHg 68%
    18:00 +24°C° 0 mm 1 mps 754 mmHg 76%
    19:00 +23°C° 0 mm 1 mps 754 mmHg 80%
    20:00 +23°C° 0 mm 1 mps 755 mmHg 84%
    21:00 +22°C° 0 mm 1 mps 755 mmHg 88%
    22:00 +21°C° 0 mm 1 mps 755 mmHg 90%
    23:00 +21°C° 0 mm 1 mps 755 mmHg 91%

    26 November, Sunday

    Time Temperature Precipitation Wind Pressure Humidity
    00:00 +19°C° 0 mm 0 mps 755 mmHg 93%
    01:00 +20°C° 0 mm 1 mps 755 mmHg 94%
    02:00 +20°C° 0 mm 1 mps 754 mmHg 95%
    03:00 +20°C° 0 mm 1 mps 754 mmHg 96%
    04:00 +19°C° 0 mm 1 mps 754 mmHg 96%
    05:00 +19°C° 0 mm 1 mps 755 mmHg 96%
    06:00 +17°C° 0 mm 0 mps 755 mmHg 97%
    07:00 +21°C° 0 mm 1 mps 756 mmHg 86%
    08:00 +23°C° 0 mm 1 mps 756 mmHg 76%
    09:00 +26°C° 0 mm 1 mps 757 mmHg 65%
    10:00 +27°C° 0 mm 1 mps 756 mmHg 60%
    11:00 +29°C° 0 mm 1 mps 756 mmHg 54%
    12:00 +30°C° 0 mm 1 mps 755 mmHg 49%
    13:00 +30°C° 0 mm 1 mps 755 mmHg 49%
    14:00 +30°C° 0 mm 1 mps 754 mmHg 49%
    15:00 +30°C° 0 mm 1 mps 753 mmHg 49%
    16:00 +28°C° 0 mm 1 mps 754 mmHg 57%
    17:00 +26°C° 0 mm 1 mps 754 mmHg 65%
    18:00 +22°C° 0 mm 0 mps 754 mmHg 73%
    19:00 +21°C° 0 mm 0 mps 755 mmHg 75%
    20:00 +23°C° 0 mm 1 mps 755 mmHg 77%
    21:00 +22°C° 0 mm 1 mps 756 mmHg 80%
    22:00 +22°C° 0 mm 1 mps 756 mmHg 81%
    23:00 +21°C° 0 mm 1 mps 755 mmHg 83%

    27 November, Monday

    Time Temperature Precipitation Wind Pressure Humidity
    00:00 +21°C° 0 mm 1 mps 755 mmHg 84%
    01:00 +20°C° 0 mm 1 mps 755 mmHg 86%
    02:00 +19°C° 0 mm 1 mps 755 mmHg 89%
    03:00 +19°C° 0 mm 1 mps 755 mmHg 91%
    04:00 +18°C° 0 mm 1 mps 755 mmHg 93%
    05:00 +18°C° 0 mm 1 mps 756 mmHg 94%
    06:00 +18°C° 0 mm 1 mps 756 mmHg 96%
    07:00 +20°C° 0 mm 1 mps 756 mmHg 85%
    08:00 +22°C° 0 mm 1 mps 756 mmHg 75%
    09:00 +24°C° 0 mm 1 mps 757 mmHg 65%
    10:00 +26°C° 0 mm 1 mps 756 mmHg 59%
    11:00 +28°C° 0 mm 1 mps 755 mmHg 53%
    12:00 +29°C° 0 mm 2 mps 755 mmHg 47%
    13:00 +29°C° 0 mm 1 mps 754 mmHg 47%
    14:00 +29°C° 0 mm 1 mps 753 mmHg 47%
    15:00 +29°C° 0 mm 1 mps 753 mmHg 47%
    16:00 +27°C° 0 mm 1 mps 753 mmHg 57%
    17:00 +25°C° 0 mm 1 mps 753 mmHg 68%
    18:00 +23°C° 0 mm 1 mps 754 mmHg 78%
    19:00 +20°C° 0.1 mm 0 mps 754 mmHg 82%
    20:00 +20°C° 0.1 mm 0 mps 754 mmHg 86%
    21:00 +19°C° 0.1 mm 0 mps 755 mmHg 90%
    22:00 +19°C° 0 mm 0 mps 755 mmHg 89%
    23:00 +21°C° 0 mm 1 mps 754 mmHg 89%

    28 November, Tuesday

    Time Temperature Precipitation Wind Pressure Humidity
    00:00 +21°C° 0 mm 1 mps 754 mmHg 89%
    01:00 +21°C° 0 mm 1 mps 754 mmHg 89%
    02:00 +21°C° 0 mm 1 mps 753 mmHg 89%
    03:00 +21°C° 0 mm 1 mps 753 mmHg 89%
    04:00 +20°C° 0 mm 1 mps 753 mmHg 90%
    05:00 +20°C° 0 mm 1 mps 754 mmHg 92%
    06:00 +20°C° 0 mm 1 mps 754 mmHg 93%
    07:00 +21°C° 0 mm 1 mps 754 mmHg 87%
    08:00 +23°C° 0 mm 1 mps 755 mmHg 82%
    09:00 +24°C° 0 mm 1 mps 755 mmHg 77%
    10:00 +25°C° 0.1 mm 1 mps 755 mmHg 75%
    11:00 +26°C° 0.1 mm 1 mps 754 mmHg 73%
    12:00 +27°C° 0.1 mm 1 mps 754 mmHg 71%
    13:00 +27°C° 0.2 mm 1 mps 753 mmHg 74%
    14:00 +27°C° 0.2 mm 1 mps 753 mmHg 77%
    15:00 +27°C° 0.2 mm 1 mps 752 mmHg 80%
    16:00 +26°C° 0.2 mm 1 mps 753 mmHg 85%
    17:00 +24°C° 0.2 mm 1 mps 753 mmHg 91%
    18:00 +23°C° 0.2 mm 1 mps 753 mmHg 96%
    19:00 +23°C° 0 mm 1 mps 754 mmHg 97%
    20:00 +21°C° 0 mm 0 mps 754 mmHg 97%
    21:00 +20°C° 0 mm 0 mps 754 mmHg 98%
    22:00 +20°C° 0.1 mm 0 mps 754 mmHg 98%
    23:00 +20°C° 0.1 mm 0 mps 754 mmHg 99%
    Show more